TimeCST,TemperatureF,Dew PointF,Humidity,Sea Level PressureIn,VisibilityMPH,Wind Direction,Wind SpeedMPH,Gust SpeedMPH,PrecipitationIn,Events,Conditions,WindDirDegrees,DateUTC
12:53 AM,28.0,18.0,66,30.30,10.0,South,5.8,-,N/A,,Clear,190,2013-03-06 06:53:00
1:53 AM,30.0,18.0,61,30.30,10.0,South,6.9,-,N/A,,Clear,180,2013-03-06 07:53:00
2:53 AM,28.9,18.0,64,30.27,10.0,South,6.9,-,N/A,,Clear,170,2013-03-06 08:53:00
3:53 AM,28.0,19.0,69,30.25,10.0,South,6.9,-,N/A,,Clear,170,2013-03-06 09:53:00
4:53 AM,30.9,18.0,59,30.24,10.0,South,10.4,-,N/A,,Clear,170,2013-03-06 10:53:00
5:53 AM,30.9,18.0,59,30.24,10.0,South,11.5,-,N/A,,Clear,170,2013-03-06 11:53:00
6:53 AM,33.1,17.1,52,30.22,10.0,South,12.7,20.7,N/A,,Clear,170,2013-03-06 12:53:00
7:53 AM,35.1,17.1,48,30.22,10.0,South,17.3,-,N/A,,Clear,170,2013-03-06 13:53:00
8:53 AM,37.0,18.0,46,30.24,10.0,South,13.8,24.2,N/A,,Clear,170,2013-03-06 14:53:00
9:53 AM,43.0,18.0,37,30.20,10.0,South,27.6,35.7,N/A,,Clear,190,2013-03-06 15:53:00
10:53 AM,46.9,17.1,30,30.18,10.0,South,28.8,35.7,N/A,,Clear,190,2013-03-06 16:53:00
11:53 AM,51.1,18.0,27,30.13,10.0,SSW,31.1,39.1,N/A,,Clear,200,2013-03-06 17:53:00
12:53 PM,52.0,19.9,28,30.12,10.0,South,23.0,33.4,N/A,,Clear,190,2013-03-06 18:53:00
1:53 PM,54.0,19.9,26,30.05,10.0,South,28.8,40.3,N/A,,Clear,190,2013-03-06 19:53:00
2:53 PM,57.9,21.0,24,30.01,10.0,South,28.8,38.0,N/A,,Clear,190,2013-03-06 20:53:00
3:53 PM,59.0,21.9,24,29.98,10.0,South,20.7,35.7,N/A,,Clear,180,2013-03-06 21:53:00
4:53 PM,57.9,24.1,27,29.95,10.0,SSE,20.7,33.4,N/A,,Clear,160,2013-03-06 22:53:00
5:53 PM,57.9,24.1,27,29.94,10.0,South,19.6,27.6,N/A,,Clear,180,2013-03-06 23:53:00
6:53 PM,54.0,24.1,31,29.94,10.0,South,13.8,-,N/A,,Clear,170,2013-03-07 00:53:00
7:53 PM,48.0,21.9,36,29.96,10.0,South,16.1,-,N/A,,Clear,170,2013-03-07 01:53:00
8:53 PM,46.0,19.9,35,29.95,10.0,South,16.1,24.2,N/A,,Clear,170,2013-03-07 02:53:00
9:53 PM,44.1,19.0,37,29.95,10.0,South,15.0,-,N/A,,Clear,170,2013-03-07 03:53:00
10:53 PM,42.1,19.9,41,29.95,10.0,South,11.5,-,N/A,,Clear,170,2013-03-07 04:53:00
11:53 PM,41.0,19.9,43,29.93,10.0,South,12.7,-,N/A,,Clear,170,2013-03-07 05:53:00